Zurück zum Katalog

STARLINK-37244

AktivKommunikationVLEO
NORAD 68529·PAYLOAD·🇺🇸 United States

Gestartet Mar 30, 2026 von Cape Canaveral Space Force Station

Loading…

Nächste Überflüge (nächste 24 Stunden)

TLE

AktuellSource: CelesTrak SupGP

Epoche: Sep 14, 2026, 21:36 UTC

1 68529C 26068X   26257.90048611 -.00006692  00000+0 -19784-3 0  2576
2 68529  53.1581 326.0336 0001205  85.5889 344.9348 15.34373929    11

Verfolge STARLINK-37244 in Echtzeit mit AllMySat

Download on the App Store